This demonstration page uses our WeatherBlox Daily Observations layout. Learn more.

Left ArrowRight Arrow

40.92501, -98.34201

Hourly Observations for May 11, 2020

Temp ( °F °C ) Dew Point ( °F °C ) Humidity (%) Winds ( mph kmh ) Pressure ( in mb ) Visibility ( mi km ) Precip ( " mm )
12:53 am 00:53 Mostly Cloudy 41 5 27 -2.8 57 57 NNW 7 11 30.41 1030 10 16 0.00 0.00
1:53 am 01:53 Cloudy 41 5 28 -2.2 60 60 N 8 13 30.42 1030 10 16 0.00 0.00
2:53 am 02:53 Cloudy 42 5.6 27 -2.8 55 55 NE 9 15 30.42 1030 10 16 0.00 0.00
3:53 am 03:53 Cloudy 42 5.6 27 -2.8 55 55 NE 9 15 30.42 1030 10 16 0.00 0.00
4:53 am 04:53 Cloudy 41 5 26 -3.3 55 55 NNE 7 11 30.43 1030 10 16 0.00 0.00
5:53 am 05:53 Cloudy 40 4.4 27 -2.8 60 60 NNE 7 11 30.43 1031 10 16 0.00 0.00
6:53 am 06:53 Cloudy 40 4.4 27 -2.8 60 60 Calm 30.44 1031 10 16 0.00 0.00
7:53 am 07:53 Cloudy 41 5 27 -2.8 57 57 Calm 30.44 1031 10 16 0.00 0.00
8:53 am 08:53 Cloudy 41 5 25 -3.9 53 53 Calm 30.45 1031 10 16 0.00 0.00
9:53 am 09:53 Cloudy 43 6.1 23 -5 45 45 Calm 30.44 1031 10 16 0.00 0.00
10:53 am 10:53 Mostly Cloudy 45 7.2 21 -6.1 39 39 Calm 30.42 1030 10 16 0.00 0.00
11:53 am 11:53 Cloudy 45 7.2 21 -6.1 39 39 Calm 30.42 1030 10 16 0.00 0.00
12:53 pm 12:53 Cloudy 45 7.2 21 -6.1 39 39 Calm 30.41 1030 10 16 0.00 0.00
1:53 pm 13:53 Cloudy 46 7.8 22 -5.6 38 38 NNE 3 6 30.39 1029 10 16 0.00 0.00
2:53 pm 14:53 Cloudy 46 7.8 21 -6.1 37 37 Calm 30.37 1028 10 16 0.00 0.00
3:53 pm 15:53 Cloudy 46 7.8 21 -6.1 37 37 N 3 6 30.34 1027 10 16 0.00 0.00
4:53 pm 16:53 Cloudy 46 7.8 21 -6.1 37 37 NE 5 7 30.32 1027 10 16 0.00 0.00
5:53 pm 17:53 Cloudy 46 7.8 22 -5.6 38 38 Calm 30.31 1026 10 16 0.00 0.00
6:53 pm 18:53 Cloudy 46 7.8 22 -5.6 38 38 Calm 30.29 1026 10 16 0.00 0.00
7:53 pm 19:53 Cloudy 45 7.2 22 -5.6 40 40 Calm 30.28 1025 10 16 0.00 0.00
8:53 pm 20:53 Cloudy 45 7.2 24 -4.4 44 44 Calm 30.27 1025 10 16 0.00 0.00
9:53 pm 21:53 Cloudy 45 7.2 24 -4.4 44 44 Calm 30.29 1026 10 16 0.00 0.00
10:53 pm 22:53 Cloudy 45 7.2 25 -3.9 46 46 Calm 30.30 1026 10 16 0.00 0.00
11:53 pm 23:53 Cloudy 44 6.7 26 -3.3 49 49 Calm 30.29 1026 10 16 0.00 0.00

Powered by AerisWeather